Regional Weather Roundup
Issued by NWS Albany, NY

Home | Current Version | Previous Version | Text Only | Print | Product List | Glossary On
Versions: 1 2 3 4 5 6 7 8 9 10 11 12 13 14 15 16 17 18 19 20 21 22 23 24 25 26 27 28 29 30 31 32 33 34 35 36 37 38 39 40 41 42 43 44 45 46 47 48 49 50
000
ASUS41 KALY 051810
RWRALY

NEW YORK STATE HOURLY WEATHER ROUNDUP
NATIONAL WEATHER SERVICE ALBANY NY
100 PM EST THU MAR 05 2015

NOTE: "FAIR" INDICATES FEW OR NO CLOUDS BELOW 12,000 FEET WITH NO
SIGNIFICANT WEATHER AND/OR NO OBSTRUCTIONS TO VISIBILITY.

NYZ032-033-038>043-046>054-057>066-NYZ062>081-051900-
EAST


CITY           SKY/WX    TMP DP  RH WIND       PRES   REMARKS
ALBANY         CLOUDY    21   5  50 NW16      30.16F WCI   7
GLENS FALLS    FAIR      21   1  41 NW13      30.17R WCI   9
POUGHKEEPSIE   CLOUDY    25   4  40 N10       30.15R WCI  15
NEWBURGH       CLOUDY    25  10  54 N9        30.12F WCI  15
MONTGOMERY     CLOUDY    25   0  33 NW10      30.12F WCI  15
WHITE PLAINS   SNOW      21  17  84 N9        30.12R VSB 1/4 WCI  11
ISLIP          SNOW      24  20  84 N13       30.13R VSB 1/2 WCI  12
NEW YORK CITY  HVY SNOW  23  20  88 NW17G24   30.17R VSB 1/4 WCI   9
CENTRAL PARK   SNOW      20  17  88 NW8G18    30.19S VSB 1/4 WCI  10
$$

NYZ005>009-017-018-044>046-055-056-051900-
CENTRAL


CITY           SKY/WX    TMP DP  RH WIND       PRES   REMARKS
FULTON         FAIR      14   2  58 N6        30.28S WCI   5
SYRACUSE       CLOUDY    11   4  73 W10       30.26S WCI  -3
ROME           CLOUDY    15   4  61 NW6       30.24F WCI   6
ELMIRA         FAIR      16   0  49 N8        30.21F WCI   5
BINGHAMTON     CLOUDY    12   3  67 NW13      30.11F WCI  -3
MONTICELLO     CLOUDY    16   0  48 NW10      30.08F WCI   3
$$

NYZ026>034-041>043-051900-
NORTH


CITY           SKY/WX    TMP DP  RH WIND       PRES   REMARKS
WATERTOWN      FAIR      16  -3  43 CALM      30.28S
FORT DRUM      NOT AVBL
MASSENA        FAIR      10  -7  46 NW8       30.28F WCI  -2
SARANAC LAKE   FAIR       8  -8  48 VRB6      30.07S WCI  -2
PLATTSBURGH    FAIR      14  -7  38 N14       30.22F WCI  -1
$$

NYZ001>004-010>016-019>021-051900-
WEST


CITY           SKY/WX    TMP DP  RH WIND       PRES   REMARKS
NIAGARA FALLS  FLURRIES  10   2  69 W12       30.32F WCI  -5
BUFFALO        LGT SNOW  12   1  61 W7        30.30R WCI   1
DUNKIRK        FAIR       9  -2  61 NW7       30.33S WCI  -2
JAMESTOWN      PTSUNNY    7  -6  56 N6        30.20S WCI  -3
WELLSVILLE     FAIR      10  -3  55 NW8       30.13S WCI  -2
ROCHESTER      CLOUDY    14   3  61 W6        30.28F WCI   5
PENN YAN       FAIR      13   1  59 W10       30.24F WCI   0
$$

             KEY
       WCI = WIND CHILL INDEX
       VSB = VISIBILITY
       HX  = HEAT INDEX
$$


USA.gov is the U.S. government's official web portal to all federal, state and local government web resources and services.